+ View the NASA Portal
+ Center for Near-Earth Object Studies
IMPORTANT:
The SSD Announcement email list is now available. Major changes are coming in the near future, including possible hostname and/or URL changes. To be notified of such changes, subscribe to this email list.
Please visit
this page
for more details.
Don't show this message again
JPL Small-Body Database Browser
Search:
[
help
]
452647 (2005 UK134)
Classification:
Main-belt Asteroid
SPK-ID:
2452647
[
Ephemeris
|
Orbit Diagram
|
Orbital Elements
|
Mission Design
|
Physical Parameters
|
Discovery Circumstances
]
[ show orbit diagram ]
Orbital Elements at Epoch 2458600.5 (2019-Apr-27.0) TDB
Reference:
JPL 21
(heliocentric ecliptic J2000)
Element
Value
Uncertainty (1-sigma)
Units
e
.192032443382553
8.5147e-08
a
2.701616975941912
3.0403e-08
au
q
2.182818866968002
2.4135e-07
au
i
11.95145789400225
7.7957e-06
deg
node
236.2378508696228
2.9712e-05
deg
peri
105.411052147315
3.6358e-05
deg
M
54.88040637735816
1.8028e-05
deg
t
p
2458353.242821261370
(2018-Aug-22.74282126)
8.1339e-05
TDB
period
1621.937413033272
4.44
2.7379e-05
7.496e-08
d
yr
n
.2219567765729905
3.7467e-09
deg/d
Q
3.220415084915821
3.6241e-08
au
Orbit Determination Parameters
# obs. used (total)
173
data-arc span
5095 days (13.95 yr)
first obs. used
2005-10-25
last obs. used
2019-10-07
planetary ephem.
DE431
SB-pert. ephem.
SB431-N16
condition code
0
norm. resid. RMS
.58019
source
ORB
producer
Otto Matic
solution date
2019-Nov-08 16:50:08
Additional Information
Earth MOID
= 1.21114 au
Jupiter MOID
= 2.35508 au
T_jup
= 3.310
[ show covariance matrix ]
[
Ephemeris
|
Orbit Diagram
|
Orbital Elements
|
Mission Design
|
Physical Parameters
|
Discovery Circumstances
]
Physical Parameter Table
Parameter
Symbol
Value
Units
Sigma
Reference
Notes
absolute magnitude
H
16.8
n/a
MPO460667
452647 (2005 UK134)
Discovered 2005-Oct-25 by LONEOS at Anderson Mesa
Reference:
Last Updated:
2016-01-04
[
Ephemeris
|
Orbit Diagram
|
Orbital Elements
|
Mission Design
|
Physical Parameters
|
Discovery Circumstances
]
2019-Dec-14 09:03 UT
(server date/time)
Site Manager:
Ryan S. Park
Webmaster
:
Alan B. Chamberlin